User: anonymous   Login
Location: Caltech
(34.1382°N, 118.1253°W)
Time: 20:21:56
(UTC-08:00)
Language:

NOSS 3-2 (A) - Orbit

View from above orbital plane
View from above orbital plane
View from above satellite
View from above satellite

Ground track
Ground track

The orbit data is extracted from the following two-line orbital elements,

1 28095U 03054A   17018.80915375 0.00000030  00000-0  41694-4 0    05
2 28095  63.4214 333.5666 0295000 358.0051   1.9949 13.41346297    08
Epoch (UTC): 18 January 2017 19:25:10
Eccentricity: 0.0295000
inclination: 63.4214°
perigee height: 883 km
apogee height: 1325 km
right ascension of ascending node: 333.5666°
argument of perigee: 358.0051°
revolutions per day: 13.41346297
mean anomaly at epoch: 1.9949°
orbit number at epoch: 0

The dashed part of the orbit path shows where the satellite is in the earth's shadow,  

DLR